Location: Newark
(34.9500°N, 139.9667°E)
Time: 15:08:58
(UTC+00:00)

Transit 2A - Pass Details

Date: 16 December 2019
Orbit: 601 x 958 km, 66.7° (Epoch: 22 January)

Event Time Altitude Azimuth Distance (km) Brightness Sun altitude
Rises 05:30:52 0° 333° (NNW) 2,900 8.8 18.4°
Reaches altitude 10° 05:33:03 10° 333° (NNW) 2,019 8.0 18.1°
Maximum altitude 05:37:36 90° 262° (W) 672 6.1 17.5°
Drops below altitude 10° 05:42:32 10° 155° (SSE) 2,189 8.7 16.8°
Sets 05:45:00 0° 155° (SSE) 3,165 9.5 16.5°
